Location: Unspecified
(0.0000°N, 0.0000°E)
Time: 20:30:30
(UTC+00:00)

LES 2 - Pass Details

Date: 23 August 2024
Orbit: 2771 x 14804 km, 32.2° (Epoch: 12 September)

Event Time Altitude Azimuth Distance (km) Brightness Sun altitude
Exits shadow 03:18:20 31° 224° (SW) 11,020 ? -40.1°
Maximum altitude 04:32:00 86° 127° (SE) 14,511 ? -22.2°
Drops below altitude 10° 06:31:11 10° 51° (NE) 12,653 ? 7.0°
Sets 06:39:35 0° 53° (NE) 12,546 ? 9.1°
